Welcome to the New NWS' Forecast!
Most changes are behind the scenes, but click here for differences you might notice.

Regional Weather Roundup (RWR)

Issued by National Weather Service (NWS)

                            
317 
ASUS44 KMEG 201300
RWRTN 
TENNESSEE HOURLY STATE WEATHER ROUNDUP
NATIONAL WEATHER SERVICE MEMPHIS TN
800 AM CDT MON AUG 20 2018

TNZ002-004-019-021-049-052-054-088>092-201400-
WEST TENNESSEE
  
CITY           SKY/WX    TMP DP  RH WIND       PRES   REMARKS
MEMPHIS INTL   PTSUNNY   72  71  97 SW9       29.93R                  
NWS MEMPHIS      N/A     72 N/A N/A MISG        N/A                   
JACKSON        FAIR      76  74  93 S6        29.93R                  
DYERSBURG      FAIR      75  72  90 VRB5      29.92R                  
$$

TNZ008-025-027-028-033-062-065-066-201400-
NORTH MIDDLE TENNESSEE
  
CITY           SKY/WX    TMP DP  RH WIND       PRES   REMARKS
NASHVILLE      LGT RAIN  76  72  87 S10       29.97S                  
CLARKSVILLE    PTSUNNY   75  71  87 S7        29.93R                  
SMYRNA         LGT RAIN  75  73  93 S9        29.98S                  
CROSSVILLE     CLOUDY    71  69  93 VRB3      30.07R                  
$$

TNZ061-075-076-078-094-096-097-201400-
SOUTH MIDDLE TENNESSEE
  
CITY           SKY/WX    TMP DP  RH WIND       PRES   REMARKS
$$

TNZ017-018-042-046-047-201400-
NORTHEAST TENNESSEE
  
CITY           SKY/WX    TMP DP  RH WIND       PRES   REMARKS
TRI CITIES     LGT RAIN  73  72  96 SE3       30.08R                  
$$

TNZ012-013-036-069-073-074-201400-
CENTRAL EAST TENNESSEE
  
CITY           SKY/WX    TMP DP  RH WIND       PRES   REMARKS
KNOXVILLE      CLOUDY    75  74  96 SW9       30.03S                  
OAK RIDGE      CLOUDY    76  74  93 VRB3      30.04S                  
$$

TNZ083-085-099-201400-
SOUTHEAST TENNESSEE
  
CITY           SKY/WX    TMP DP  RH WIND       PRES   REMARKS
CHATTANOOGA    CLOUDY    75  70  84 S7        30.03S FOG              
$$

SKY/WX REPORTED AS FAIR MEANS FEW OR NO CLOUDS BELOW
12 THOUSAND FEET.